LEMUR-2-BAXTER-OLIVER

Last updated on Tue Dec 21 2021 00:02:04 GMT+0000 (Greenwich Mean Time)

1 46925U 98067RV 21354.50774834 .11296266 12432-4 10085-2 0 9994 2 46925 51.6322 96.4191 0005032 349.2763 10.8155 16.38239480 64184

Satellite not in orbit